Plato, MN

7:26 AM CST on January 17, 2017 (GMT -0600)
Glencoe Municipal

Weather History for KGYL - September, 2013

Change the Weather History Date:

Saturday, September 7, 2013

  Actual Average (KHCD) Record (KHCD)
Temperature  
Mean Temperature 78 °F -  
Max Temperature 91 °F 77 °F 98 °F (1978)
Min Temperature 66 °F 54 °F 40 °F (1979)
Cooling Degree Days 14    
Growing Degree Days 28 (Base 50)    
Moisture  
Dew Point 65 °F    
Average Humidity 65    
Maximum Humidity 89    
Minimum Humidity 36    
Precipitation  
Precipitation 0.00 in - - ()
Sea Level Pressure  
Sea Level Pressure 29.92 in    
Wind  
Wind Speed 4 mph (NE)    
Max Wind Speed 13 mph    
Max Gust Speed 18 mph    
Visibility 9 miles    
Events      
Averages and records for this station are not official NWS values.
T = Trace of Precipitation, MM = Missing Value Source: NWS Daily Summary

Daily Weather History Graph

Daily Weather History Graph

Search for Another Location

Airport or City:

Trip Planner

Search our weather history database for the weather conditions in past years. The results will help you decide how hot, cold, wet, or windy it might be!

Date:

Astronomy

Sep. 07, 2013 Rise Set
Actual Time 6:46 AM CDT 7:41 PM CDT
Civil Twilight 6:16 AM CDT 8:11 PM CDT
Nautical Twilight 5:40 AM CDT 8:46 PM CDT
Astronomical Twilight 5:03 AM CDT 9:23 PM CDT
Moon 9:09 AM CDT (9/7) 8:31 PM CDT (9/7)
Length of Visible Light 13h 55m
Length of Day
12h 55m
Waxing Crescent, 5% of the Moon is Illuminated
Sep 7
Waxing Crescent
Sep 12
First Quarter
Sep 19
Full
Sep 26
Last Quarter
Oct 4
New

Hourly Weather History & Observations

Time (CDT) Temp. Heat Index Dew Point Humidity Pressure Visibility Wind Dir Wind Speed Gust Speed Precip Events Conditions
12:14 AM 74.5 °F - 65.3 °F 73% 29.88 in 10.0 mi South 3.5 mph - N/A   Clear
12:33 AM 73.8 °F - 65.5 °F 75% 29.87 in 10.0 mi South 4.6 mph - N/A   Clear
12:54 AM 73.4 °F - 65.5 °F 76% 29.88 in 10.0 mi South 3.5 mph - N/A   Clear
1:14 AM 72.9 °F - 65.7 °F 78% 29.88 in 10.0 mi Calm Calm - N/A   Clear
1:34 AM 72.7 °F - 65.7 °F 79% 29.88 in 10.0 mi South 3.5 mph - N/A   Clear
1:53 AM 72.1 °F - 65.5 °F 79% 29.89 in 10.0 mi South 4.6 mph - N/A   Clear
2:14 AM 72.5 °F - 65.7 °F 79% 29.88 in 10.0 mi South 5.8 mph - N/A   Clear
2:33 AM 72.0 °F - 65.7 °F 80% 29.88 in 10.0 mi SSW 3.5 mph - N/A   Clear
2:54 AM 71.8 °F - 65.7 °F 81% 29.87 in 10.0 mi South 3.5 mph - N/A   Clear
3:14 AM 71.4 °F - 65.7 °F 82% 29.87 in 10.0 mi SSW 3.5 mph - N/A   Clear
3:33 AM 70.7 °F - 65.7 °F 84% 29.87 in 10.0 mi SSW 4.6 mph - N/A   Clear
3:54 AM 70.7 °F - 65.7 °F 84% 29.87 in 10.0 mi Calm Calm - N/A   Clear
4:13 AM 70.7 °F - 65.8 °F 85% 29.87 in 10.0 mi Calm Calm - N/A   Clear
4:34 AM 70.9 °F - 65.8 °F 84% 29.87 in 10.0 mi Calm Calm - N/A   Clear
4:54 AM 69.8 °F - 64.9 °F 84% 29.87 in 7.0 mi Calm Calm - N/A   Clear
5:14 AM 69.8 °F - 65.5 °F 86% 29.87 in 7.0 mi Calm Calm - N/A   Clear
5:34 AM 68.9 °F - 64.6 °F 86% 29.87 in 7.0 mi Calm Calm - N/A   Clear
5:54 AM 69.3 °F - 65.7 °F 88% 29.87 in 5.0 mi Calm Calm - N/A   Clear
6:13 AM 67.6 °F - 64.0 °F 88% 29.87 in 5.0 mi Calm Calm - N/A   Clear
6:34 AM 66.9 °F - 63.3 °F 88% 29.88 in 5.0 mi Calm Calm - N/A   Clear
6:54 AM 67.8 °F - 64.2 °F 88% 29.89 in 2.5 mi Calm Calm - N/A   Clear
7:14 AM 68.2 °F - 64.6 °F 88% 29.89 in 2.0 mi NW 3.5 mph - N/A   Clear
7:34 AM 69.1 °F - 65.7 °F 89% 29.90 in 3.0 mi Calm Calm - N/A   Clear
7:54 AM 69.8 °F - 66.2 °F 88% 29.90 in 4.0 mi NNW 3.5 mph - N/A   Clear
8:13 AM 70.7 °F - 66.6 °F 87% 29.90 in 5.0 mi NNW 3.5 mph - N/A   Clear
8:34 AM 73.0 °F - 67.5 °F 83% 29.90 in 7.0 mi North 5.8 mph - N/A   Clear
8:53 AM 74.5 °F - 67.5 °F 79% 29.91 in 10.0 mi NNW 5.8 mph - N/A   Clear
9:14 AM 76.6 °F - 68.0 °F 75% 29.91 in 10.0 mi North 4.6 mph - N/A   Clear
9:33 AM 78.6 °F - 68.0 °F 70% 29.91 in 10.0 mi NNE 5.8 mph - N/A   Clear
9:54 AM 80.4 °F 83.1 °F 68.0 °F 66% 29.92 in 10.0 mi NNE 6.9 mph - N/A   Clear
10:14 AM 81.5 °F 84.2 °F 68.0 °F 63% 29.92 in 10.0 mi NE 3.5 mph - N/A   Clear
10:34 AM 82.4 °F 85.4 °F 68.0 °F 62% 29.93 in 10.0 mi NNE 3.5 mph - N/A   Clear
10:54 AM 82.8 °F 85.5 °F 67.8 °F 60% 29.93 in 10.0 mi NNE 5.8 mph - N/A   Clear
11:14 AM 83.5 °F 86.4 °F 68.0 °F 59% 29.93 in 10.0 mi NNE 5.8 mph - N/A   Clear
11:33 AM 84.4 °F 87.6 °F 68.2 °F 58% 29.93 in 10.0 mi North 8.1 mph - N/A   Clear
11:54 AM 86.0 °F 89.1 °F 67.8 °F 54% 29.93 in 10.0 mi NNE 5.8 mph - N/A   Clear
12:14 PM 86.2 °F 89.1 °F 67.1 °F 53% 29.94 in 10.0 mi NNE 6.9 mph - N/A   Clear
12:34 PM 87.4 °F 90.8 °F 68.0 °F 52% 29.93 in 10.0 mi NNE 5.8 mph - N/A   Clear
12:54 PM 88.0 °F 91.0 °F 67.3 °F 50% 29.92 in 10.0 mi ENE 8.1 mph - N/A   Clear
1:14 PM 88.5 °F 91.2 °F 66.6 °F 48% 29.92 in 10.0 mi NE 9.2 mph - N/A   Clear
1:34 PM 89.1 °F 91.7 °F 66.6 °F 47% 29.92 in 10.0 mi NE 6.9 mph - N/A   Clear
1:54 PM 88.7 °F 91.5 °F 66.6 °F 48% 29.93 in 10.0 mi NNE 8.1 mph - N/A   Clear
2:14 PM 88.9 °F 91.4 °F 66.6 °F 47% 29.93 in 10.0 mi ENE 6.9 mph - N/A   Clear
2:34 PM 89.2 °F 91.6 °F 66.2 °F 46% 29.93 in 10.0 mi NNE 8.1 mph - N/A   Scattered Clouds
2:53 PM 89.2 °F 91.3 °F 65.3 °F 45% 29.93 in 10.0 mi NNE 10.4 mph - N/A   Scattered Clouds
3:13 PM 88.9 °F 90.7 °F 64.9 °F 45% 29.92 in 10.0 mi NNE 6.9 mph - N/A   Clear
3:34 PM 90.0 °F 91.3 °F 64.2 °F 42% 29.92 in 10.0 mi NE 6.9 mph - N/A   Clear
3:53 PM 90.3 °F 91.2 °F 62.8 °F 40% 29.93 in 10.0 mi ENE 12.7 mph 17.3 mph N/A   Clear
4:14 PM 91.2 °F 91.1 °F 60.6 °F 36% 29.93 in 10.0 mi ENE 12.7 mph 18.4 mph N/A   Clear
4:33 PM 89.4 °F 89.5 °F 61.3 °F 39% 29.93 in 10.0 mi ENE 8.1 mph - N/A   Clear
4:54 PM 90.7 °F 90.7 °F 60.8 °F 37% 29.92 in 10.0 mi NE 6.9 mph - N/A   Clear
5:14 PM 90.5 °F 90.7 °F 61.7 °F 38% 29.93 in 10.0 mi NE 9.2 mph - N/A   Clear
5:33 PM 88.2 °F 88.4 °F 61.5 °F 41% 29.94 in 10.0 mi NE 4.6 mph - N/A   Clear
5:54 PM 88.3 °F 88.6 °F 61.9 °F 41% 29.94 in 10.0 mi NNE 4.6 mph - N/A   Clear
6:14 PM 88.0 °F 88.4 °F 62.4 °F 42% 29.95 in 10.0 mi NE 3.5 mph - N/A   Clear
6:33 PM 87.3 °F 88.3 °F 63.3 °F 45% 29.95 in 10.0 mi Calm Calm - N/A   Clear
6:54 PM 86.4 °F 87.6 °F 64.2 °F 47% 29.95 in 10.0 mi Calm Calm - N/A   Clear
7:14 PM 84.4 °F 87.1 °F 66.9 °F 56% 29.95 in 10.0 mi Calm Calm - N/A   Clear
7:33 PM 83.3 °F 85.5 °F 66.0 °F 56% 29.95 in 10.0 mi North 3.5 mph - N/A   Clear
7:54 PM 82.4 °F 84.4 °F 65.7 °F 57% 29.95 in 10.0 mi Calm Calm - N/A   Clear
8:13 PM 78.8 °F - 67.1 °F 67% 29.96 in 10.0 mi Calm Calm - N/A   Clear
8:34 PM 77.9 °F - 67.3 °F 70% 29.96 in 10.0 mi Calm Calm - N/A   Clear
8:53 PM 78.8 °F - 66.0 °F 65% 29.97 in 10.0 mi NNE 4.6 mph - N/A   Clear
9:14 PM 79.7 °F - 65.5 °F 62% 29.97 in 10.0 mi NNE 4.6 mph - N/A   Clear
9:33 PM 79.0 °F - 65.3 °F 63% 29.97 in 10.0 mi NNE 4.6 mph - N/A   Clear
9:54 PM 78.3 °F - 64.8 °F 63% 29.97 in 10.0 mi NE 3.5 mph - N/A   Clear
10:14 PM 77.2 °F - 64.6 °F 65% 29.98 in 10.0 mi NE 3.5 mph - N/A   Clear
10:33 PM 77.0 °F - 64.4 °F 65% 29.99 in 10.0 mi NE 4.6 mph - N/A   Clear
10:54 PM 76.5 °F - 64.8 °F 67% 29.99 in 10.0 mi NNE 6.9 mph - N/A   Clear
11:14 PM 75.4 °F - 64.8 °F 69% 30.00 in 10.0 mi NE 4.6 mph - N/A   Clear
11:34 PM 74.5 °F - 64.6 °F 71% 30.00 in 10.0 mi NE 5.8 mph - N/A   Clear
11:54 PM 73.9 °F - 63.5 °F 70% 30.01 in 10.0 mi NE 4.6 mph - N/A   Clear